EST,Max TemperatureF,Mean TemperatureF,Min TemperatureF,Max Dew PointF,MeanDew PointF,Min DewpointF,Max Humidity, Mean Humidity, Min Humidity, Max Sea Level PressureIn, Mean Sea Level PressureIn, Min Sea Level PressureIn, Max VisibilityMiles, Mean VisibilityMiles, Min VisibilityMiles, Max Wind SpeedMPH, Mean Wind SpeedMPH, Max Gust SpeedMPH,PrecipitationIn, CloudCover, Events, WindDirDegrees
2012-11-1,54,44,33,38,28,20,92,60,28,29.94,29.90,29.86,10,10,10,20,9,24,T,6,,253
2012-11-2,54,45,36,33,31,29,70,56,41,30.10,29.97,29.84,10,10,10,14,7,18,0.00,3,,317
2012-11-3,49,40,31,40,35,28,100,81,61,30.18,30.10,30.03,10,9,1,18,7,23,0.53,5,Rain-Thunderstorm,57
2012-11-4,51,42,33,38,35,30,100,76,52,30.17,30.13,30.08,10,9,5,10,6,26,0.00,2,,1
2012-11-5,48,37,25,35,30,25,92,74,56,30.18,30.13,30.08,10,9,4,12,5,13,0.00,1,,40
2012-11-6,53,42,30,37,32,27,92,69,46,30.06,29.99,29.91,10,10,10,9,3,12,0.00,5,,35
2012-11-7,51,44,36,41,38,32,100,81,61,30.12,29.97,29.89,10,7,2,10,4,13,0.07,6,Rain,298
2012-11-8,52,41,30,36,31,28,100,72,44,30.26,30.20,30.12,10,7,2,8,4,12,0.00,0,,339
2012-11-9,60,45,29,41,35,28,92,68,44,30.29,30.22,30.17,10,9,6,14,7,17,0.00,0,,169
2012-11-10,70,58,46,45,39,35,71,54,36,30.27,30.22,30.17,10,10,10,17,10,22,0.00,0,,178
2012-11-11,69,59,49,47,39,35,61,46,30,30.29,30.21,30.12,10,10,10,25,14,32,0.00,0,,175
2012-11-12,63,47,31,56,44,25,96,78,60,30.45,30.20,30.04,10,8,1,26,12,35,0.83,6,Rain,250
2012-11-13,45,34,23,29,25,23,100,75,49,30.52,30.48,30.45,10,10,10,9,3,12,0.00,0,,106
2012-11-14,44,35,26,30,26,23,85,69,53,30.50,30.44,30.36,10,10,10,15,8,17,0.00,0,,45
2012-11-15,50,38,25,31,28,23,92,69,46,30.38,30.34,30.31,10,10,7,9,3,12,0.00,0,,23
2012-11-16,52,40,27,33,29,25,92,68,44,30.47,30.41,30.36,10,9,5,12,5,14,0.00,0,,38
2012-11-17,58,44,30,34,31,28,92,66,39,30.53,30.47,30.43,10,9,5,14,8,17,0.00,0,,60
2012-11-18,63,49,34,30,27,24,70,47,23,30.45,30.41,30.36,10,10,10,8,5,10,0.00,0,,89
2012-11-19,61,47,32,38,32,27,82,59,36,30.37,30.30,30.21,10,10,10,6,1,8,0.00,0,,85
2012-11-20,63,51,39,41,37,32,86,61,36,30.19,30.14,30.07,10,10,10,7,3,12,0.00,4,,167
2012-11-21,64,51,38,43,38,36,82,60,37,30.23,30.19,30.11,10,10,10,9,2,16,0.00,1,,30
2012-11-22,66,50,33,42,39,32,96,70,43,30.24,30.17,30.08,10,10,6,14,7,18,0.00,0,,178
2012-11-23,55,44,32,48,36,23,93,68,42,30.19,30.07,30.00,10,10,3,25,12,37,0.00,5,,262
2012-11-24,36,29,21,22,19,17,81,67,52,30.27,30.22,30.16,10,10,10,12,6,17,0.00,5,,289
2012-11-25,52,38,23,24,22,20,81,56,30,30.15,30.05,29.95,10,10,10,20,10,25,0.00,0,,208
2012-11-26,50,42,34,40,29,23,100,71,42,30.19,30.14,30.07,10,10,4,8,2,10,0.27,5,Rain,180
2012-11-27,40,35,29,39,33,28,100,88,76,30.35,30.28,30.20,10,6,2,16,7,21,0.06,7,Rain,19
2012-11-28,43,34,25,32,26,23,100,77,53,30.47,30.39,30.31,10,5,0,10,4,13,0.00,1,Fog,211
2012-11-29,51,37,22,30,26,21,100,71,41,30.43,30.36,30.27,10,9,6,13,7,16,0.00,0,,169
2012-11-30,57,48,39,41,35,29,76,64,51,30.31,30.25,30.19,10,10,10,23,9,32,0.00,1,,191